Powrót do katalogu

DELTA 1 DEB

AktywnyLEO
NORAD 10837·DEBRIS·🇺🇸 United States

Wystrzelony Jul 29, 1976 z Vandenberg Space Force Base

Loading…

Następne Przeloty (najbliższe 24 godziny)

TLE

ŚwieżeSource: Space-Track

Epoka: Sep 14, 2026, 06:13 UTC

1 10837U 76077CH  26257.25945341 -.00000014  00000-0  30724-3 0  9996
2 10837 102.3226 180.5020 0200903  27.8408 125.6123 12.04541017204344

Śledź DELTA 1 DEB w czasie rzeczywistym z AllMySat

Download on the App Store